Regional Weather Roundup
Issued by NWS Midland/Odessa, TX

Home | Current Version | Previous Version | Text Only | Print | Product List | Glossary On
Versions: 1 2 3 4 5 6 7 8 9 10 11 12 13 14 15 16 17 18 19 20 21 22 23 24 25 26 27 28 29 30 31 32 33 34 35 36 37 38 39 40 41 42 43 44 45 46 47 48 49 50
000
ASUS44 KMAF 020210
RWRMAF
MIDLAND AREA WEATHER ROUNDUP
NATIONAL WEATHER SERVICE MIDLAND TX
900 PM CDT WED OCT 01 2014

...IN SOUTHWEST TEXAS AND SOUTHEAST NEW MEXICO...

CITY           SKY/WX    TMP DP  RH WIND       PRES   REMARKS
ALPINE         CLEAR     64  47  53 S8        30.01R
ANDREWS        FAIR      77  46  32 SW8       29.83R
ARTESIA        NOT AVBL
BIG SPRING     CLEAR     79  53  41 CALM      29.82R
CARLSBAD       CLEAR     71  46  40 SW7       29.81R
DRYDEN           N/A     83  65  54 E7        29.79R
FORT STOCKTON  CLEAR     78  48  34 S3        29.84R
GUAD PASS      CLEAR     68  33  27 W22       29.99S
HOBBS          CLEAR     66  48  52 S10       29.85R
MARFA          CLEAR     64  43  45 CALM      30.00R
MIDLAND AIRPK  CLEAR     81  51  34 SW5       29.82R
MIDLAND INTL   CLEAR     82  52  35 S5        29.81R
ODESSA         CLEAR     75  55  49 S7        29.83R
PECOS          CLEAR     79  48  33 CALM      29.79S
PRESIDIO       FAIR      83  47  27 N6        29.81R
SEMINOLE       CLEAR     70  48  46 SW7       29.84R
SNYDER         CLEAR     77  58  52 W6        29.79R
WINK           CLEAR     77  51  40 SW5       29.80R
$$
...OTHER STATIONS IN TEXAS...

CITY           SKY/WX    TMP DP  RH WIND       PRES   REMARKS
ABILENE        PTCLDY    87  63  44 SE15      29.76R
AMARILLO       CLEAR     69  43  38 S7        29.81R
AUSTIN         PTCLDY    80  70  71 S5        29.79R
BROWNSVILLE    CLEAR     82  81  96 SE9       29.81R
CORPUS CHRISTI PTCLDY    82  78  88 SE13      29.80R
DALLAS FTW     PTCLDY    86  65  49 S12       29.76R
DEL RIO        PTCLDY    84  65  52 SE9       29.75R
EL PASO        CLEAR     80  36  20 W13       29.88R
HOUSTON INT    PTCLDY    82  74  76 S9        29.83R
LUBBOCK        PTCLDY    71  47  42 SW8       29.81R
SAN ANGELO     CLEAR     84  59  42 S6        29.77R
SAN ANTONIO    PTCLDY    85  67  54 S9        29.80R
WACO           CLEAR     84  68  58 SE10      29.77R
WICHITA FALLS  NOT AVBL
$$
...OTHER LOCATIONS IN NEW MEXICO...

CITY           SKY/WX    TMP DP  RH WIND       PRES   REMARKS
ALAMAGORDO     CLEAR     64  37  36 S8        29.90R
ALBUQUERQUE    MOCLDY    72  29  20 NW13      29.92R
CANNON AFB     CLEAR     64  43  46 SW7       29.87R
CLOVIS           N/A     63  43  48 SW9       29.88R
HOLLOMAN AFB   CLEAR     73  32  22 S9        29.88R
ROSWELL        CLEAR     68  50  52 SW14      29.81R
RUIDOSO        CLEAR     61  28  29 SW12      30.04R
SANTA FE       PTCLDY    58  27  30 N6        29.96R
TRUTH OR CONSE CLEAR     73  33  23 W13       29.89R
TUCUMCARI      CLEAR     66  42  41 SW9       29.81R
$$


USA.gov is the U.S. government's official web portal to all federal, state and local government web resources and services.